Retour au catalogue

STARLINK-36748

ActifCommunicationsSSO
NORAD 67693·PAYLOAD·🇺🇸 United States

Lancé Feb 7, 2026 depuis Vandenberg Space Force Base

Loading…

Prochains Passages (prochaines 24 heures)

TLE

FraisSource: CelesTrak SupGP

Époque: Sep 15, 2026, 03:45 UTC

1 67693C 26025A   26258.15673611 -.00017215  00000+0 -53425-3 0  2586
2 67693  97.2858   8.1895 0001185  89.6991 166.5012 15.33457611    18

Suivez STARLINK-36748 en temps réel avec AllMySat

Download on the App Store